When you browse on this site, cookies collect data to enhance your experience and personalize the content and advertising you see.
Visit our Privacy Policy to learn more. By continuing to use the site, you agree to this use of cookies and data.
  • In Belgien
  • Länderverzeichnis
  • Für 7 Tage
  • Wassertemperatur
  • Wetterkarte
  • Widgets
  • user-avatar
    Anmelden

    Stündliche Wetter Kerkira

    Heute, 26 Januar, Sonntag

    Zeit Temperatur Niederschläge Wind Luftdruck Luftfeuchtigkeit
    00:00 +12°C° 0.1 mm 3 m/S 769 mmHg 85%
    01:00 +12°C° 0.1 mm 4 m/S 769 mmHg 85%
    02:00 +11°C° 0 mm 4 m/S 768 mmHg 86%
    03:00 +11°C° 0 mm 4 m/S 768 mmHg 86%
    04:00 +11°C° 0 mm 4 m/S 768 mmHg 86%
    05:00 +11°C° 0 mm 4 m/S 767 mmHg 85%
    06:00 +11°C° 0 mm 4 m/S 767 mmHg 85%
    07:00 +10°C° 0 mm 5 m/S 767 mmHg 84%
    08:00 +12°C° 0 mm 5 m/S 767 mmHg 80%
    09:00 +13°C° 0 mm 5 m/S 767 mmHg 76%
    10:00 +14°C° 0 mm 5 m/S 767 mmHg 72%
    11:00 +14°C° 0 mm 6 m/S 766 mmHg 71%
    12:00 +14°C° 0 mm 6 m/S 766 mmHg 69%
    13:00 +15°C° 0 mm 7 m/S 765 mmHg 68%
    14:00 +15°C° 0.2 mm 7 m/S 765 mmHg 70%
    15:00 +14°C° 0.2 mm 7 m/S 765 mmHg 72%
    16:00 +14°C° 0.2 mm 7 m/S 764 mmHg 75%
    17:00 +14°C° 0.2 mm 7 m/S 764 mmHg 75%
    18:00 +14°C° 0.2 mm 7 m/S 764 mmHg 76%
    19:00 +14°C° 0.2 mm 7 m/S 764 mmHg 76%
    20:00 +13°C° 0.5 mm 6 m/S 764 mmHg 80%
    21:00 +13°C° 0.5 mm 6 m/S 764 mmHg 83%
    22:00 +13°C° 0.5 mm 6 m/S 764 mmHg 87%
    23:00 +13°C° 1.2 mm 5 m/S 764 mmHg 87%

    Morgen, 27 Januar, Montag

    Zeit Temperatur Niederschläge Wind Luftdruck Luftfeuchtigkeit
    00:00 +13°C° 1.2 mm 5 m/S 764 mmHg 88%
    01:00 +13°C° 1.2 mm 4 m/S 764 mmHg 89%
    02:00 +13°C° 1.2 mm 4 m/S 763 mmHg 89%
    03:00 +12°C° 1.2 mm 4 m/S 763 mmHg 89%
    04:00 +12°C° 1.2 mm 3 m/S 763 mmHg 89%
    05:00 +12°C° 0.5 mm 3 m/S 763 mmHg 88%
    06:00 +12°C° 0.5 mm 3 m/S 763 mmHg 87%
    07:00 +12°C° 0.5 mm 3 m/S 763 mmHg 86%
    08:00 +12°C° 0.5 mm 3 m/S 763 mmHg 84%
    09:00 +13°C° 0.5 mm 3 m/S 763 mmHg 83%
    10:00 +13°C° 0.5 mm 3 m/S 763 mmHg 81%
    11:00 +14°C° 0.7 mm 4 m/S 763 mmHg 79%
    12:00 +14°C° 0.7 mm 4 m/S 763 mmHg 78%
    13:00 +14°C° 0.7 mm 4 m/S 762 mmHg 76%
    14:00 +14°C° 0.4 mm 5 m/S 762 mmHg 77%
    15:00 +14°C° 0.4 mm 5 m/S 762 mmHg 78%
    16:00 +13°C° 0.4 mm 5 m/S 762 mmHg 79%
    17:00 +13°C° 0.1 mm 5 m/S 762 mmHg 80%
    18:00 +12°C° 0.1 mm 4 m/S 763 mmHg 81%
    19:00 +12°C° 0.1 mm 4 m/S 763 mmHg 82%
    20:00 +11°C° 0 mm 4 m/S 763 mmHg 82%
    21:00 +11°C° 0 mm 4 m/S 764 mmHg 82%
    22:00 +11°C° 0 mm 3 m/S 764 mmHg 82%
    23:00 +11°C° 0 mm 3 m/S 764 mmHg 82%

    übermorgen, 28 Januar, Dienstag

    Zeit Temperatur Niederschläge Wind Luftdruck Luftfeuchtigkeit
    00:00 +10°C° 0 mm 3 m/S 764 mmHg 82%
    01:00 +10°C° 0 mm 4 m/S 764 mmHg 81%
    02:00 +10°C° 0 mm 3 m/S 764 mmHg 81%
    03:00 +10°C° 0 mm 3 m/S 763 mmHg 81%
    04:00 +9°C° 0 mm 3 m/S 763 mmHg 81%
    05:00 +9°C° 0 mm 2 m/S 764 mmHg 81%
    06:00 +9°C° 0 mm 2 m/S 764 mmHg 81%
    07:00 +9°C° 0 mm 2 m/S 764 mmHg 80%
    08:00 +10°C° 0 mm 2 m/S 764 mmHg 78%
    09:00 +12°C° 0 mm 1 m/S 764 mmHg 75%
    10:00 +13°C° 0 mm 1 m/S 764 mmHg 72%
    11:00 +14°C° 0 mm 1 m/S 763 mmHg 71%
    12:00 +14°C° 0 mm 2 m/S 763 mmHg 71%
    13:00 +14°C° 0 mm 2 m/S 762 mmHg 70%
    14:00 +14°C° 0 mm 2 m/S 762 mmHg 73%
    15:00 +13°C° 0 mm 3 m/S 762 mmHg 75%
    16:00 +13°C° 0 mm 3 m/S 762 mmHg 78%
    17:00 +12°C° 0.1 mm 3 m/S 762 mmHg 80%
    18:00 +12°C° 0.1 mm 3 m/S 762 mmHg 81%
    19:00 +12°C° 0.1 mm 3 m/S 762 mmHg 83%
    20:00 +12°C° 0.3 mm 4 m/S 762 mmHg 84%
    21:00 +12°C° 0.3 mm 4 m/S 762 mmHg 86%
    22:00 +12°C° 0.3 mm 5 m/S 761 mmHg 87%
    23:00 +12°C° 0.6 mm 5 m/S 761 mmHg 87%

    29 Januar, Mittwoch

    Zeit Temperatur Niederschläge Wind Luftdruck Luftfeuchtigkeit
    00:00 +13°C° 0.6 mm 5 m/S 761 mmHg 86%
    01:00 +13°C° 0.6 mm 6 m/S 760 mmHg 86%
    02:00 +13°C° 0.7 mm 6 m/S 760 mmHg 86%
    03:00 +13°C° 0.7 mm 6 m/S 760 mmHg 86%
    04:00 +12°C° 0.7 mm 7 m/S 759 mmHg 86%
    05:00 +13°C° 0.5 mm 6 m/S 760 mmHg 85%
    06:00 +13°C° 0.5 mm 6 m/S 760 mmHg 84%
    07:00 +13°C° 0.5 mm 6 m/S 760 mmHg 84%
    08:00 +13°C° 0 mm 5 m/S 760 mmHg 79%
    09:00 +14°C° 0 mm 4 m/S 760 mmHg 75%
    10:00 +14°C° 0 mm 3 m/S 760 mmHg 70%
    11:00 +14°C° 0 mm 4 m/S 760 mmHg 67%
    12:00 +15°C° 0 mm 4 m/S 759 mmHg 63%
    13:00 +15°C° 0 mm 4 m/S 759 mmHg 59%
    14:00 +14°C° 0 mm 4 m/S 759 mmHg 61%
    15:00 +14°C° 0 mm 4 m/S 759 mmHg 63%
    16:00 +13°C° 0 mm 4 m/S 759 mmHg 66%
    17:00 +13°C° 0 mm 4 m/S 760 mmHg 69%
    18:00 +12°C° 0 mm 3 m/S 760 mmHg 73%
    19:00 +11°C° 0 mm 3 m/S 760 mmHg 76%
    20:00 +11°C° 0.2 mm 3 m/S 760 mmHg 77%
    21:00 +11°C° 0.2 mm 3 m/S 760 mmHg 77%
    22:00 +12°C° 0.2 mm 4 m/S 761 mmHg 77%
    23:00 +12°C° 0.2 mm 4 m/S 760 mmHg 78%

    30 Januar, Donnerstag

    Zeit Temperatur Niederschläge Wind Luftdruck Luftfeuchtigkeit
    00:00 +12°C° 0.2 mm 4 m/S 760 mmHg 78%
    01:00 +10°C° 0.2 mm 5 m/S 760 mmHg 78%
    02:00 +10°C° 0.2 mm 5 m/S 760 mmHg 79%
    03:00 +10°C° 0.2 mm 5 m/S 760 mmHg 80%
    04:00 +10°C° 0.2 mm 5 m/S 760 mmHg 80%
    05:00 +10°C° 0.1 mm 4 m/S 760 mmHg 80%
    06:00 +10°C° 0.1 mm 4 m/S 760 mmHg 79%
    07:00 +10°C° 0.1 mm 4 m/S 760 mmHg 79%
    08:00 +11°C° 0 mm 4 m/S 761 mmHg 75%
    09:00 +12°C° 0 mm 3 m/S 761 mmHg 71%
    10:00 +13°C° 0 mm 3 m/S 761 mmHg 68%
    11:00 +13°C° 0 mm 4 m/S 761 mmHg 66%
    12:00 +13°C° 0 mm 5 m/S 761 mmHg 64%
    13:00 +14°C° 0 mm 6 m/S 761 mmHg 62%
    14:00 +12°C° 0.1 mm 7 m/S 761 mmHg 66%
    15:00 +11°C° 0.1 mm 8 m/S 761 mmHg 70%
    16:00 +11°C° 0.1 mm 9 m/S 761 mmHg 73%
    17:00 +10°C° 0 mm 9 m/S 762 mmHg 74%
    18:00 +10°C° 0 mm 8 m/S 763 mmHg 74%
    19:00 +9°C° 0 mm 8 m/S 763 mmHg 75%
    20:00 +8°C° 0 mm 7 m/S 764 mmHg 75%
    21:00 +8°C° 0 mm 6 m/S 764 mmHg 74%
    22:00 +7°C° 0 mm 6 m/S 765 mmHg 74%
    23:00 +7°C° 0 mm 5 m/S 765 mmHg 73%

    31 Januar, Freitag

    Zeit Temperatur Niederschläge Wind Luftdruck Luftfeuchtigkeit
    00:00 +6°C° 0 mm 4 m/S 765 mmHg 73%
    01:00 +6°C° 0 mm 4 m/S 765 mmHg 73%
    02:00 +7°C° 0 mm 3 m/S 765 mmHg 71%
    03:00 +7°C° 0 mm 3 m/S 766 mmHg 69%
    04:00 +5°C° 0 mm 3 m/S 766 mmHg 68%
    05:00 +5°C° 0 mm 3 m/S 766 mmHg 64%
    06:00 +5°C° 0 mm 3 m/S 766 mmHg 60%
    07:00 +6°C° 0 mm 2 m/S 766 mmHg 57%
    08:00 +7°C° 0 mm 2 m/S 766 mmHg 51%
    09:00 +9°C° 0 mm 2 m/S 767 mmHg 45%
    10:00 +11°C° 0 mm 1 m/S 767 mmHg 39%
    11:00 +12°C° 0 mm 1 m/S 767 mmHg 38%
    12:00 +12°C° 0 mm 1 m/S 766 mmHg 38%
    13:00 +13°C° 0 mm 1 m/S 766 mmHg 37%
    14:00 +13°C° 0 mm 1 m/S 766 mmHg 42%
    15:00 +12°C° 0 mm 1 m/S 766 mmHg 46%
    16:00 +12°C° 0 mm 1 m/S 766 mmHg 51%
    17:00 +11°C° 0 mm 1 m/S 766 mmHg 52%
    18:00 +9°C° 0 mm 0 m/S 766 mmHg 53%
    19:00 +8°C° 0 mm 0 m/S 766 mmHg 55%
    20:00 +8°C° 0 mm 0 m/S 767 mmHg 54%
    21:00 +9°C° 0 mm 1 m/S 767 mmHg 54%
    22:00 +8°C° 0 mm 1 m/S 767 mmHg 53%
    23:00 +8°C° 0 mm 1 m/S 767 mmHg 53%
    Mehr zeigen